Weather History for Imperial, CA

Change the Weather History Date:

Monday, August 6, 2012

  Actual Average Record
Temperature  
Mean Temperature 96 °F -  
Max Temperature 111 °F 106 °F 111 °F (1951)
Min Temperature 82 °F 79 °F 69 °F (1956)
Cooling Degree Days 30    
Growing Degree Days 46 (Base 50)    
Moisture  
Dew Point 67 °F    
Average Humidity 42    
Maximum Humidity 70    
Minimum Humidity 18    
Precipitation  
Precipitation 0.00 in - - ()
Sea Level Pressure  
Sea Level Pressure 29.84 in    
Wind  
Wind Speed 4 mph (ESE)    
Max Wind Speed 9 mph    
Max Gust Speed -    
Visibility 10 miles    
Events      
Averages and records for this station are not official NWS values.
T = Trace of Precipitation, MM = Missing Value Source: NWS Daily Summary

Daily Weather History Graph

Daily Weather History Graph

Search for Another Location

Airport:

Trip Planner

Search our weather history database for the weather conditions in past years. The results will help you decide how hot, cold, wet, or windy it might be!

Date:

Astronomy

Aug. 06, 2012 Rise Set
Actual Time 5:59 AM PDT 7:35 PM PDT
Civil Twilight 5:33 AM PDT 8:02 PM PDT
Nautical Twilight 5:01 AM PDT 8:34 PM PDT
Astronomical Twilight 4:27 AM PDT 9:07 PM PDT
Moon 10:08 PM PDT (8/6) 10:32 AM PDT (8/6)
Length of Visible Light 14h 29m
Length of Day
13h 36m
Waning Gibbous, 77% of the Moon is Illuminated
Aug 6
Waning Gibbous
Aug 9
Last Quarter
Aug 17
New
Aug 24
First Quarter
Aug 31
Full

Hourly Weather History & Observations

Time (PDT) Temp. Heat Index Dew Point Humidity Pressure Visibility Wind Dir Wind Speed Gust Speed Precip Events Conditions
12:53 AM 88.0 °F 92.1 °F 69.1 °F 53% 29.86 in 10.0 mi East 4.6 mph - N/A   Clear
1:53 AM 88.0 °F 91.4 °F 68.0 °F 51% 29.85 in 10.0 mi East 4.6 mph - N/A   Clear
2:53 AM 86.0 °F 90.7 °F 70.0 °F 59% 29.85 in 10.0 mi East 4.6 mph - N/A   Clear
3:53 AM 82.9 °F 87.5 °F 71.1 °F 67% 29.85 in 10.0 mi Calm Calm - N/A   Clear
4:53 AM 84.0 °F 89.6 °F 72.0 °F 67% 29.86 in 10.0 mi ESE 5.8 mph - N/A   Clear
5:53 AM 82.9 °F 88.0 °F 72.0 °F 69% 29.87 in 10.0 mi ESE 4.6 mph - N/A   Clear
6:53 AM 84.9 °F 92.1 °F 73.9 °F 69% 29.91 in 10.0 mi SE 9.2 mph - N/A   Clear
7:53 AM 86.0 °F 95.1 °F 75.0 °F 70% 29.91 in 10.0 mi SE 8.1 mph - N/A   Clear
8:53 AM 89.1 °F 100.2 °F 75.9 °F 65% 29.91 in 10.0 mi SE 8.1 mph - N/A   Clear
9:53 AM 93.0 °F 105.3 °F 75.9 °F 57% 29.91 in 10.0 mi Calm Calm - N/A   Clear
10:53 AM 97.0 °F 109.3 °F 75.0 °F 49% 29.91 in 10.0 mi NE 4.6 mph - N/A   Clear
11:53 AM 100.0 °F 107.8 °F 70.0 °F 38% 29.90 in 10.0 mi Calm Calm - N/A   Clear
12:53 PM 104.0 °F 108.9 °F 66.0 °F 29% 29.88 in 10.0 mi Calm Calm - N/A   Clear
1:53 PM 107.1 °F 109.6 °F 62.1 °F 23% 29.85 in 10.0 mi ENE 5.8 mph - N/A   Clear
2:53 PM 109.0 °F 110.5 °F 59.0 °F 20% 29.83 in 10.0 mi East 5.8 mph - N/A   Clear
3:53 PM 109.0 °F 109.6 °F 57.9 °F 19% 29.80 in 10.0 mi Variable 6.9 mph - N/A   Clear
4:53 PM 109.9 °F 110.2 °F 57.9 °F 18% 29.78 in 10.0 mi NE 8.1 mph - N/A   Clear
5:53 PM 108.0 °F 110.3 °F 61.0 °F 22% 29.76 in 10.0 mi WNW 3.5 mph - N/A   Clear
6:53 PM 109.0 °F 109.6 °F 57.9 °F 19% 29.76 in 10.0 mi Calm Calm - N/A   Clear
7:53 PM 102.0 °F 103.3 °F 61.0 °F 26% 29.77 in 10.0 mi Calm Calm - N/A   Clear
8:53 PM 98.1 °F 100.7 °F 64.0 °F 33% 29.78 in 10.0 mi Calm Calm - N/A   Clear
9:53 PM 99.0 °F 99.5 °F 61.0 °F 28% 29.78 in 10.0 mi South 3.5 mph - N/A   Clear
10:53 PM 97.0 °F 98.3 °F 63.0 °F 32% 29.78 in 10.0 mi SSW 4.6 mph - N/A   Clear
11:53 PM 97.0 °F 97.8 °F 62.1 °F 31% 29.78 in 10.0 mi SSE 4.6 mph - N/A   Clear